Location: B�rgermoos
(47.6500°N, 9.0667°E)
Time: 09:12:48
(UTC+00:00)

Vanguard 3 - Pass Details

Date: 04 August 2021
Orbit: 510 x 3260 km, 33.4° (Epoch: 23 September)

Event Time Altitude Azimuth Distance (km) Brightness Sun altitude
Rises 23:09:39 0° 276° (W) 7,042 12.1 -25.2°
Reaches altitude 10° 23:16:29 10° 261° (W) 6,178 11.6 -25.3°
Maximum altitude 23:27:51 19° 226° (SW) 5,351 10.9 -25.4°
Enters shadow 23:29:59 19° 218° (SW) 5,318 10.8 -25.4°
